Weather History for KASE - November, 2013

Change the Weather History Date:

Friday, November 8, 2013

  Actual Average Record
Temperature  
Mean Temperature 38 °F 33 °F  
Max Temperature 51 °F 45 °F 66 °F (2006)
Min Temperature 25 °F 20 °F 6 °F (2000)
Degree Days  
Heating Degree Days 27 32  
Month to date heating degree days 280 244  
Since 1 July heating degree days 1485 1499  
Cooling Degree Days 0 0  
Month to date cooling degree days 0 0  
Year to date cooling degree days 69 39  
Moisture  
Dew Point 20 °F    
Average Humidity 52    
Maximum Humidity 75    
Minimum Humidity 28    
Precipitation  
Precipitation 0.00 in 0.05 in 1.00 in (1985)
Month to date precipitation 0.24 0.42  
Year to date precipitation 14.44 15.17  
Sea Level Pressure  
Sea Level Pressure 30.04 in    
Wind  
Wind Speed 6 mph (SSW)    
Max Wind Speed 18 mph    
Max Gust Speed 25 mph    
Visibility 10 miles    
Events      
T = Trace of Precipitation, MM = Missing Value Source: NWS Daily Summary

Daily Weather History Graph

Daily Weather History Graph

Search for Another Location

Airport or City:

Trip Planner

Search our weather history database for the weather conditions in past years. The results will help you decide how hot, cold, wet, or windy it might be!

Date:

Astronomy

Nov. 08, 2013 Rise Set
Actual Time 6:43 AM MST 4:58 PM MST
Civil Twilight 6:15 AM MST 5:26 PM MST
Nautical Twilight 5:43 AM MST 5:58 PM MST
Astronomical Twilight 5:11 AM MST 6:30 PM MST
Moon 11:41 AM MST (11/8) 10:22 PM MST (11/8)
Length of Visible Light 11h 11m
Length of Day
10h 15m
Waxing Crescent, 34% of the Moon is Illuminated
Nov 8
Waxing Crescent
Nov 9
First Quarter
Nov 17
Full
Nov 25
Last Quarter
Dec 2
New

Hourly Weather History & Observations

Time (MST) Temp. Windchill Dew Point Humidity Pressure Visibility Wind Dir Wind Speed Gust Speed Precip Events Conditions
12:53 AM 28.9 °F 25.2 °F 21.0 °F 72% 30.07 in 10.0 mi Variable 3.5 mph - N/A   Partly Cloudy
1:53 AM 28.9 °F 23.9 °F 21.9 °F 75% 30.03 in 10.0 mi SSE 4.6 mph - N/A   Partly Cloudy
2:53 AM 28.9 °F - 21.0 °F 72% 30.00 in 10.0 mi Calm Calm - N/A   Scattered Clouds
3:53 AM 28.0 °F 22.8 °F 19.9 °F 72% 29.98 in 10.0 mi Variable 4.6 mph - N/A   Clear
4:53 AM 28.0 °F 20.8 °F 19.0 °F 69% 30.05 in 10.0 mi ESE 6.9 mph - N/A   Clear
5:53 AM 27.0 °F 20.5 °F 18.0 °F 69% 30.10 in 10.0 mi South 5.8 mph - N/A   Clear
6:53 AM 26.1 °F 21.9 °F 18.0 °F 71% 30.13 in 10.0 mi South 3.5 mph - N/A   Scattered Clouds
7:53 AM 30.0 °F - 19.9 °F 66% 30.12 in 10.0 mi Calm Calm - N/A   Clear
8:53 AM 37.0 °F 32.4 °F 19.0 °F 48% 30.08 in 10.0 mi SE 5.8 mph - N/A   Clear
9:53 AM 43.0 °F - 19.0 °F 38% 30.04 in 10.0 mi Calm Calm - N/A   Clear
10:53 AM 46.9 °F - 19.9 °F 34% 29.99 in 10.0 mi North 5.8 mph - N/A   Clear
11:53 AM 51.1 °F - 19.9 °F 29% 29.96 in 10.0 mi North 11.5 mph - N/A   Clear
12:53 PM 50.0 °F - 19.9 °F 31% 29.95 in 10.0 mi North 15.0 mph 21.9 mph N/A   Clear
1:53 PM 51.1 °F - 21.0 °F 31% 29.93 in 10.0 mi North 5.8 mph 16.1 mph N/A   Clear
2:53 PM 50.0 °F - 19.9 °F 31% 29.93 in 10.0 mi NNW 13.8 mph 20.7 mph N/A   Clear
3:53 PM 48.0 °F - 19.9 °F 33% 29.96 in 10.0 mi WNW 5.8 mph - N/A   Clear
4:53 PM 43.0 °F - 21.0 °F 42% 29.99 in 10.0 mi Calm Calm - N/A   Clear
5:53 PM 36.0 °F 31.1 °F 21.9 °F 57% 30.06 in 10.0 mi SSW 5.8 mph - N/A   Clear
6:53 PM 33.1 °F 26.1 °F 21.9 °F 64% 30.10 in 10.0 mi SSW 8.1 mph - N/A   Clear
7:53 PM 30.9 °F 25.2 °F 21.9 °F 69% 30.10 in 10.0 mi South 5.8 mph - N/A   Clear
8:53 PM 30.0 °F 24.1 °F 21.0 °F 69% 30.09 in 10.0 mi SSW 5.8 mph - N/A   Clear
9:53 PM 28.0 °F 21.7 °F 19.9 °F 72% 30.09 in 10.0 mi South 5.8 mph - N/A   Clear
10:53 PM 30.0 °F 24.1 °F 19.0 °F 64% 30.06 in 10.0 mi SSW 5.8 mph - N/A   Clear
11:53 PM 28.0 °F 24.2 °F 19.0 °F 69% 30.06 in 10.0 mi Variable 3.5 mph - N/A   Clear